Flight Information

DEPARTURE
EVERETT, WA
Elevation:
607
Runways:
16R/34L - 9010x150 - ASPH-CONC-G
16L/34R - 3004x75 - ASPH-G
Tower:
132.95
DESTINATION
,
Elevation:
TPA:
1000 (est.)


6658.5 NM65° True-20° Var44° HDG

Flight Plan:
(click to file on line)

1. Type
2. Aircraft Identification
3. Aircraft Type / Special Equipment
4. True Airspeed
kts
5. Departure Airport
(ICAO code)
6. Arriving Airport
(ICAO code)
7. Cruising Altitude
ft
8. Alternate Airport
(ICAO code)
9. Route of Flight
10. Remarks


00:00:00 Departure ATIS: Destination ATIS:

Clearance Limit:
Route:
Altitude: Expect in minutes
Frequency:
Transponder: (7500 Hijack / 7600 Lost Comms / 7700 Emergency)


KPAE 221453Z 34006KT 10SM OVC075 03/M01 A3003 RMK AO2 SLP173 T00331006 55002
Time: 2021-01-22T14:53:00Z
1611329624
Winds: 340 @ 6 kts
Visibility: 10.0 sm
Clouds (AGL): OVC 7500
Temperature: 3.3 C
Dew Point: -0.6 C
Pressure: 30.029528 in Hgbr


Notes:

Data extracted from FAA Digital Chart Supplement. Effective: 0901Z Thursday, Dec 31, 2020 to 0901Z Thursday, Jan 28, 2021
Current ATIS data is provided courtisy of PilotEdge.